Charleston, SC

8:30 AM EDT on September 19, 2017 (GMT -0400)
Charleston Air Force Base-International

Weather History for KCHS - January, 2015

Change the Weather History Date:

Tuesday, January 6, 2015

  Actual Average Record
Temperature  
Mean Temperature 50 °F 48 °F  
Max Temperature 63 °F 59 °F 78 °F (1955)
Min Temperature 36 °F 37 °F 17 °F (1999)
Degree Days  
Heating Degree Days 15 17  
Month to date heating degree days 62 102  
Since 1 July heating degree days 758 840  
Cooling Degree Days 0 0  
Month to date cooling degree days 4 0  
Year to date cooling degree days 4 0  
Moisture  
Dew Point 33 °F    
Average Humidity 63    
Maximum Humidity 100    
Minimum Humidity 25    
Precipitation  
Precipitation 0.00 in 0.11 in 1.24 in (1970)
Month to date precipitation 0.40 0.68  
Year to date precipitation 0.40 0.68  
Sea Level Pressure  
Sea Level Pressure 30.26 in    
Wind  
Wind Speed 6 mph (West)    
Max Wind Speed 20 mph    
Max Gust Speed 24 mph    
Visibility 10 miles    
Events      
T = Trace of Precipitation, MM = Missing Value Source: NWS Daily Summary

Daily Weather History Graph

Daily Weather History Graph

Search for Another Location

Airport or City:

Trip Planner

Search our weather history database for the weather conditions in past years. The results will help you decide how hot, cold, wet, or windy it might be!

Date:

Astronomy

Jan. 06, 2015 Rise Set
Actual Time 7:23 AM EST 5:28 PM EST
Civil Twilight 6:56 AM EST 5:55 PM EST
Nautical Twilight 6:25 AM EST 6:26 PM EST
Astronomical Twilight 5:55 AM EST 6:56 PM EST
Moon 7:09 PM EST (1/6) 8:05 AM EST (1/6)
Length of Visible Light 10h 59m
Length of Day
10h 04m
Full, 98% of the Moon is Illuminated
Jan 6
Full
Jan 13
Last Quarter
Jan 20
New
Jan 26
First Quarter
Feb 3
Full

Hourly Weather History & Observations

Time (EST) Temp. Windchill Dew Point Humidity Pressure Visibility Wind Dir Wind Speed Gust Speed Precip Events Conditions
12:56 AM 39.0 °F - 37.0 °F 93% 30.40 in 10.0 mi Calm Calm - N/A   Scattered Clouds
1:56 AM 39.0 °F - 36.0 °F 89% 30.40 in 10.0 mi Calm Calm - N/A   Scattered Clouds
2:56 AM 37.0 °F - 36.0 °F 96% 30.38 in 10.0 mi Calm Calm - N/A   Scattered Clouds
3:56 AM 36.0 °F - 35.1 °F 97% 30.37 in 10.0 mi Calm Calm - N/A   Scattered Clouds
4:56 AM 37.0 °F - 35.1 °F 93% 30.34 in 10.0 mi Calm Calm - N/A   Scattered Clouds
5:56 AM 36.0 °F 32.1 °F 35.1 °F 97% 30.35 in 10.0 mi NNW 4.6 mph - N/A   Scattered Clouds
6:56 AM 37.0 °F - 35.1 °F 93% 30.34 in 10.0 mi Calm Calm - N/A   Partly Cloudy
7:56 AM 37.0 °F - 35.1 °F 93% 30.33 in 10.0 mi Calm Calm - N/A   Scattered Clouds
8:56 AM 46.0 °F 43.9 °F 37.9 °F 73% 30.35 in 10.0 mi WNW 4.6 mph - N/A   Partly Cloudy
9:56 AM 52.0 °F - 37.0 °F 57% 30.35 in 10.0 mi WNW 9.2 mph - N/A   Partly Cloudy
10:56 AM 55.9 °F - 35.1 °F 45% 30.32 in 10.0 mi West 12.7 mph - N/A   Scattered Clouds
11:56 AM 59.0 °F - 41.0 °F 51% 30.27 in 10.0 mi West 11.5 mph - N/A   Scattered Clouds
12:56 PM 61.0 °F - 34.0 °F 36% 30.23 in 10.0 mi WSW 15.0 mph - N/A   Partly Cloudy
1:56 PM 63.0 °F - 30.0 °F 29% 30.18 in 10.0 mi West 12.7 mph - N/A   Partly Cloudy
2:56 PM 63.0 °F - 26.1 °F 25% 30.17 in 10.0 mi West 13.8 mph 21.9 mph N/A   Partly Cloudy
3:56 PM 62.1 °F - 26.1 °F 25% 30.16 in 10.0 mi WNW 15.0 mph - N/A   Partly Cloudy
4:56 PM 60.1 °F - 26.1 °F 27% 30.17 in 10.0 mi West 12.7 mph 17.3 mph N/A   Partly Cloudy
5:56 PM 54.0 °F - 28.9 °F 38% 30.16 in 10.0 mi WSW 5.8 mph - N/A   Partly Cloudy
6:56 PM 53.1 °F - 30.0 °F 41% 30.17 in 10.0 mi WSW 3.5 mph - N/A   Clear
7:56 PM 50.0 °F - 30.0 °F 46% 30.17 in 10.0 mi WSW 4.6 mph - N/A   Clear
8:56 PM 50.0 °F - 30.0 °F 46% 30.18 in 10.0 mi West 3.5 mph - N/A   Clear
9:56 PM 48.0 °F - 30.0 °F 50% 30.17 in 10.0 mi West 3.5 mph - N/A   Clear
10:56 PM 46.0 °F 44.8 °F 30.9 °F 56% 30.16 in 10.0 mi WSW 3.5 mph - N/A   Clear
11:56 PM 46.0 °F 43.1 °F 32.0 °F 58% 30.16 in 10.0 mi West 5.8 mph - N/A   Clear